Find Starlink 32046

NORAD ID: 60198 Int'l Des: 2024-124 Owner: SPXS Country: US Constellation: starlink operational
LEOCIRCULAR

当前视图

正在加载3D地球...

About Starlink 32046

Starlink 32046 (NORAD 60198) is a starlink constellation satellite (v2 mini) launched Jul 3, 2024 by SPXS of US. It operates in LEO, CIRCULAR orbit with a mass of 730.00 kg.

关于 Starlink 32046

正在加载描述...

即将过境

Passes for default location (London). Set your location on the main map for personalized predictions.

高度历史

Loading altitude history...

两行轨道根数

1 60198U 24124R 26171.38380081 .00000328 00000-0 22340-4 0 9993
2 60198 53.1600 205.1379 0001188 90.9160 269.1978 15.31708025111255
Epoch: Jun 20, 2026 • Age: 40 hours

当前状态

高度 471.3 km
速度 7.63 km/s
星下点 26.02°N, 70.86°E
发射日期 Jul 3, 2024
运行时间 1.9 years
类型 internet

技术详情

分类 Payload
质量 730.00 kg
干质量 700.00 kg
总质量 730.00 kg
长度 0.30 m
直径 4.10 m
跨度 29.00 m
形状 Box + pan
制造商 SPXS
平台类型 Starlink V2M
阶段状态 In Orbit
所有者/国家 SPXS/US

Most Searched